Dewpoint
33 34 32 32 32 31 31 31 32 31 30 28 28 30 30 31 32 31 31 33 32 33
27 29 31 32 31 32 31 30 29 29 29 28 27 27 30 31 30 31 31 32 33 33
29 29 30 30 30 31 29 30 29 28 26 28 25 26 29 31 31 31 33 33 33 33
29 29 29 29 29 29 28 25 24 24 25 24 25 25 27 28 30 31 32 32 32 33
29 30 29 28 27 24 23 23 22 22 22 22 25 26 28 30 30 32 31 32 33 33
29 30 29 27 24 23 22 21 21 22 23 24 27 29 30 31 32 31 32 33 33 33
29 29 27 24 24 23 22 21 22 24 26 29 30 30 31 32 33 34 34 34 35 35
28 26 24 24 24 23 22 23 25 26 28 30 32 32 33 35 37 37 38 39 38 39
24 24 24 24 23 23 24 25 26 27 29 31 32 37 39 39 39 41 41 41 41 41
23 23 24 23 23 26 26 26 27 29 30 31 33 39 41 42 41 41 41 41 41 40
22 23 24 24 25 25 26 28 30 31 32 34 35 40 41 43 41 41 40 40 39 40
23 24 24 25 25 26 28 29 31 32 33 33 35 41 42 41 41 40 39 39 40 40
24 25 25 25 27 28 29 30 31 32 34 38 38 40 41 41 41 40 40 38 39 40
26 24 24 25 27 29 29 29 34 35 36 36 37 40 41 42 39 38 38 39 38 39
Lifted_Index
9 9 10 10 10 10 10 10 11 11 12 12 13 13 13 13 12 12 12 12 12 12
9 10 10 10 10 10 10 10 11 12 12 13 13 13 12 12 12 12 12 12 11 11
9 10 10 10 10 10 10 11 12 12 12 13 13 13 12 12 11 11 11 11 10 10
9 9 10 10 10 10 11 12 12 12 13 13 12 12 12 11 11 10 10 10 10 9
9 9 9 10 10 11 11 12 12 12 12 12 12 12 11 10 10 9 9 9 9 9
9 9 9 10 11 11 12 12 12 12 12 12 11 11 10 9 9 9 8 8 8 8
9 9 10 10 11 11 12 12 12 12 11 11 10 9 9 8 8 7 7 7 7 7
10 10 10 11 11 11 12 12 11 11 10 10 9 8 8 7 7 6 6 6 6 6
10 10 11 11 11 11 11 11 10 10 9 9 8 8 7 6 6 6 6 6 6 6
10 10 11 11 11 11 10 10 9 9 9 8 8 8 7 6 6 6 6 6 6 6
10 10 10 10 10 10 9 9 9 9 9 8 8 8 7 6 6 6 6 6 6 6
9 9 9 9 9 9 9 9 9 9 9 9 8 8 7 6 6 6 7 7 7 7
8 8 8 8 8 8 9 9 9 9 9 9 9 8 7 7 7 7 7 7 8 8
7 8 8 8 8 8 9 9 9 9 9 9 9 8 7 7 7 7 8 8 8 8